Hlavní strana
METAR-TAF:

METAR-TAF

Letiště :

Athens, Tennessee, Spojené státy americké

zeměpisná šířka: 35-23-50N, zeměpisná délka: 084-33-45W, výška: 262 m

Aktuální stav počasí

Zpráva byla vytvořena před 11 minutami, v 02:55 UTC
Západojihozápadní vítr 6 kt
Teplota 10°C
Vlhkost vzduchu 93%
Tlak 1020 hPa
Viditelnost: 16.1 km
Zataženo ve výšce 800 ft

METAR: KMMI 190255Z AUTO 25006KT 10SM OVC008 10/09 A3011 RMK A01

Čas: 21:06 (03:06 UTC)


TAF: chybějící

Stav a předpovědi počasí z více než 4 000 letišť (zprávy METAR a TAF).

Červené a žluté tečky na mapě představují dostupné meteorologické stanice.

Když kurzor umístíte na tečku, zobrazí se název stanice.

Pak kliknutím zobrazíte stav a předpověď počasí.

Chcete-li změnit mapu, kliknutím na zelené tlačítko se znaménkem +mapu přiblížíte, kliknutím na zelené tlačítko se znaménkem – mapu oddálíte a kliknutím na zelené šipky přejdete na sousední mapy.


METAR-TAF: